Home > Weather > Pierre > Past weeks

Flag for USA Past Weather in Pierre, South Dakota, USA — Yesterday and Last 2 Weeks

Now
93 °F

Sunny.


Feels Like: 95 °F
Forecast: 71 / 92 °F
Wind: 21 mph from Northwest

Location: Pierre Regional Airport

Current Time: Jul 23, 2016 at 4:18:23 PM

Latest Report: Jul 23, 2016 at 3:53 PM


Visibility: 10 mi

Pressure: 29.71 "Hg

Humidity: 40%

Dew Point: 65 °F

Location of PierreLocation

Past Weather in Pierre — Graph

°F

Pierre Temperature Yesterday

Maximum temperature yesterday: 100 °F (at 3:53 PM)
Minimum temperature yesterday: 75 °F (at 5:53 AM)
Average temperature yesterday: 84 °F

High & Low Weather Summary for the Past Weeks

 TemperatureHumidityPressure
High108 °F (Jul 20, 4:53 PM)100% (Jul 22, 4:53 AM)30.14 "Hg (Jul 22, 4:53 AM)
Low56 °F (Jul 15, 4:53 AM)8% (Jul 11, 5:53 PM)29.39 "Hg (Jul 10, 11:53 PM)
Average78 °F59%29.83 "Hg
* Reported Jul 8 2:53 PM — Jul 23 2:53 PM, Pierre, Weather by CustomWeather, © 2016

Note: Actual official high and low records may vary slightly from our data, if they occured in-between our weather recording intervals... More about our weather records

Advertising

Pierre Weather History for the Previous 24 Hours

Scroll right to see more
 ConditionsComfort  
Time TempWeatherWind HumidityBarometerVisibility
2:53 PM
Sat, Jul 23
93 °FSunny.23 mph41%29.69 "Hg10 mi
1:53 PM94 °FSunny.24 mph40%29.67 "Hg10 mi
12:53 PM93 °FSunny.20 mph40%29.66 "Hg10 mi
11:53 AM92 °FSunny.15 mph46%29.64 "Hg10 mi
10:53 AM88 °FSunny.5 mph59%29.65 "Hg10 mi
9:53 AM83 °FSunny.9 mph72%29.68 "Hg10 mi
8:53 AM80 °FSunny.9 mph79%29.69 "Hg10 mi
8:04 AM76 °FMostly cloudy.8 mph88%29.75 "Hg10 mi
6:53 AM76 °FMostly cloudy.8 mph91%29.70 "Hg10 mi
5:53 AM76 °FOvercast.8 mph88%29.71 "Hg10 mi
4:53 AM77 °FOvercast.7 mph82%29.76 "Hg10 mi
3:53 AM78 °FOvercast.12 mph79%29.77 "Hg10 mi
3:02 AM78 °FOvercast.17 mph76%29.81 "Hg10 mi
2:53 AM77 °FLight rain. Passing clouds.16 mph77%29.76 "Hg10 mi
2:01 AM78 °FPassing clouds.18 mph69%29.82 "Hg10 mi
1:53 AM78 °FPassing clouds.20 mph69%29.78 "Hg10 mi
12:53 AM79 °FMostly cloudy.21 mph72%29.82 "Hg10 mi
11:53 PM
Fri, Jul 22
77 °FThundershowers. Passing clouds.16 mph77%29.87 "Hg10 mi
10:53 PM81 °FClear.16 mph62%29.86 "Hg10 mi
9:53 PM84 °FSunny.17 mph67%29.86 "Hg10 mi
8:53 PM85 °FSunny.12 mph63%29.84 "Hg10 mi
7:53 PM86 °FSunny.23 mph59%29.83 "Hg10 mi
6:53 PM88 °FSunny.21 mph52%29.83 "Hg10 mi
5:53 PM88 °FSunny.29 mph48%29.83 "Hg10 mi
4:53 PM98 °FSunny.20 mph35%29.84 "Hg10 mi
Weather by CustomWeather, © 2016

See weather overviewHow to use our weather pages